Simultaneous Nadir Overpasses (SNOs) Predictions

Prediction of SNOs between GOES-15 and NOAA-19 Satellite Orbit:

Table of predicted SNOs for the next 14.0 days since TLE Epoch: 2/1/2025
Index Date Time (GOES-15) GOES-15 Lat,Lon NOAA-19 Lat,Lon Distance(km) Time Diff (sec)
1 02/02/2025 05:36:00 0.01, 61.75 0.35, 60.18 178.14 80
2 02/03/2025 05:26:08 0.01, 61.76 -0.32, 63.23 167.53 80
3 02/05/2025 17:45:03 -0.00, 61.80 -0.69, 58.72 350.71 80
4 02/06/2025 17:32:30 -0.00, 61.82 0.01, 61.77 6.53 80
5 02/07/2025 17:17:17 -0.01, 61.85 0.65, 64.82 338.77 80
6 02/10/2025 05:36:03 0.00, 61.94 0.39, 60.35 182.39 80
7 02/11/2025 05:26:11 0.01, 61.97 -0.30, 63.40 162.68 80
8 02/13/2025 17:45:03 -0.01, 61.99 -0.71, 58.89 353.45 80
9 02/14/2025 17:32:29 -0.01, 62.02 -0.05, 61.95 8.85 80
